KT2UU-13 Weather Reports


Display with metric or nautical units.
time (UTC)temp
F
wind
direction
speed
MPH
gust
MPH
rain 1hr
in
rain 24hr
in
rain mn
in
humidity
%
barometer
mb
20260904222114 95 219 0.0 0.0 0.00 0.00 0.00 57 1015.3
20260904221614 95 219 0.0 0.0 0.00 0.00 0.00 55 1015.2
20260904221113 94 219 0.0 3.0 0.00 0.00 0.00 56 1015.2
20260904220609 95 215 3.0 4.0 0.00 0.00 0.00 55 1015.1
20260904220104 95 219 0.0 2.0 0.00 0.00 0.00 55 1015.3
20260904215604 95 219 2.0 2.0 0.00 0.00 0.00 52 1015.1
20260904215100 94 215 1.0 4.0 0.00 0.00 0.00 52 1015.2
20260904214555 95 219 0.0 3.0 0.00 0.00 0.00 52 1015.1
20260904214051 95 219 2.0 3.0 0.00 0.00 0.00 52 1015.0
20260904213548 95 210 1.0 3.0 0.00 0.00 0.00 51 1015.1
20260904213045 96 219 0.0 2.0 0.00 0.00 0.00 54 1015.2
20260904212545 96 219 0.0 2.0 0.00 0.00 0.00 54 1015.3
20260904212040 95 219 1.0 3.0 0.00 0.00 0.00 54 1015.4
20260904211539 95 213 2.0 2.0 0.00 0.00 0.00 56 1015.5
20260904211035 94 214 0.0 0.0 0.00 0.00 0.00 57 1015.3
20260904210534 93 212 0.0 2.0 0.00 0.00 0.00 58 1015.5
20260904210030 93 211 1.0 2.0 0.00 0.00 0.00 58 1015.5
20260904205526 94 213 0.0 2.0 0.00 0.00 0.00 58 1015.5
20260904205022 96 222 1.0 4.0 0.00 0.00 0.00 56 1015.7
20260904204518 95 219 1.0 2.0 0.00 0.00 0.00 56 1015.6
20260904204014 96 219 0.0 0.0 0.00 0.00 0.00 55 1015.7
20260904203509 97 219 2.0 3.0 0.00 0.00 0.00 53 1015.8
20260904203006 98 216 2.0 3.0 0.00 0.00 0.00 51 1015.6
20260904202501 96 221 0.0 0.0 0.00 0.00 0.00 53 1015.7
20260904201957 94 219 0.0 4.0 0.00 0.00 0.00 56 1015.7
20260904201452 97 213 2.0 3.0 0.00 0.00 0.00 54 1015.8
20260904200948 97 221 1.0 4.0 0.00 0.00 0.00 53 1015.7
20260904200446 96 219 1.0 3.0 0.00 0.00 0.00 54 1016.0
20260904195941 96 219 0.0 2.0 0.00 0.00 0.00 53 1015.9
20260904195439 95 219 0.0 1.0 0.00 0.00 0.00 55 1016.1
20260904194939 95 213 0.0 0.0 0.00 0.00 0.00 55 1016.3
20260904194434 95 213 1.0 2.0 0.00 0.00 0.00 55 1016.2
20260904193929 96 219 0.0 0.0 0.00 0.00 0.00 54 1016.4
20260904193424 96 219 4.0 6.0 0.00 0.00 0.00 53 1016.6
20260904192919 96 213 1.0 3.0 0.00 0.00 0.00 53 1016.5
20260904192414 95 218 0.0 0.0 0.00 0.00 0.00 55 1016.6
20260904191910 95 214 0.0 0.0 0.00 0.00 0.00 55 1016.6
20260904191406 96 217 0.0 6.0 0.00 0.00 0.00 53 1016.7
20260904190903 95 218 0.0 1.0 0.00 0.00 0.00 55 1016.8
20260904190358 94 218 0.0 4.0 0.00 0.00 0.00 55 1017.0
20260904185855 94 215 1.0 4.0 0.00 0.00 0.00 57 1017.0
20260904185350 94 214 1.0 6.0 0.00 0.00 0.00 57 1017.2
20260904184850 93 211 0.0 0.0 0.00 0.00 0.00 58 1017.1
20260904184344 93 212 2.0 2.0 0.00 0.00 0.00 59 1017.3
20260904183840 95 218 2.0 2.0 0.00 0.00 0.00 59 1017.4
20260904183335 95 218 3.0 3.0 0.00 0.00 0.00 57 1017.4
20260904182830 93 212 0.0 2.0 0.00 0.00 0.00 61 1017.4
20260904182325 93 222 0.0 0.0 0.00 0.00 0.00 61 1017.8
20260904181821 93 214 0.0 2.0 0.00 0.00 0.00 63 1017.5
20260904181321 92 211 2.0 6.0 0.00 0.00 0.00 61 1017.5
20260904180816 93 215 1.0 2.0 0.00 0.00 0.00 61 1017.7
20260904180311 94 218 1.0 2.0 0.00 0.00 0.00 58 1017.7
20260904175810 93 218 1.0 2.0 0.00 0.00 0.00 60 1017.9
20260904175308 94 220 2.0 4.0 0.00 0.00 0.00 59 1017.8
20260904174803 93 212 0.0 1.0 0.00 0.00 0.00 62 1018.1
20260904174259 93 214 0.0 1.0 0.00 0.00 0.00 63 1017.9
20260904173755 92 214 0.0 0.0 0.00 0.00 0.00 63 1018.0
20260904173250 92 212 0.0 4.0 0.00 0.00 0.00 63 1018.1
20260904172746 93 218 0.0 0.0 0.00 0.00 0.00 61 1018.2
20260904172245 92 214 0.0 0.0 0.00 0.00 0.00 64 1018.2
20260904171740 92 217 0.0 2.0 0.00 0.00 0.00 62 1018.3
20260904171235 92 215 0.0 2.0 0.00 0.00 0.00 63 1018.4
20260904170732 91 215 0.0 0.0 0.00 0.00 0.00 66 1018.4
20260904170228 90 227 2.0 4.0 0.00 0.00 0.00 65 1018.5
20260904165726 91 217 0.0 2.0 0.00 0.00 0.00 66 1018.4
20260904165221 90 210 0.0 0.0 0.00 0.00 0.00 68 1018.7
20260904164715 90 215 0.0 2.0 0.00 0.00 0.00 68 1018.6
20260904164210 90 210 0.0 3.0 0.00 0.00 0.00 67 1018.7
20260904163707 90 212 1.0 2.0 0.00 0.00 0.00 66 1018.8
20260904163202 90 217 1.0 2.0 0.00 0.00 0.00 66 1018.7
20260904162700 89 220 0.0 2.0 0.00 0.00 0.00 66 1018.7
20260904162155 89 219 2.0 3.0 0.00 0.00 0.00 66 1019.0
20260904161651 90 219 2.0 3.0 0.00 0.00 0.00 65 1018.9
20260904161146 89 220 1.0 3.0 0.00 0.00 0.00 66 1018.8
20260904160642 89 220 1.0 1.0 0.00 0.00 0.00 67 1019.1
20260904160137 89 215 0.0 1.0 0.00 0.00 0.00 69 1019.1
20260904155632 88 217 0.0 2.0 0.00 0.00 0.00 70 1018.8
20260904155126 88 220 0.0 3.0 0.00 0.00 0.00 71 1019.1
20260904154624 88 219 3.0 4.0 0.00 0.00 0.00 71 1018.9
20260904154119 88 216 2.0 2.0 0.00 0.00 0.00 72 1019.1
20260904153614 87 215 0.0 2.0 0.00 0.00 0.00 71 1018.9
20260904153110 87 215 1.0 2.0 0.00 0.00 0.00 71 1019.0
20260904152606 87 215 0.0 0.0 0.00 0.00 0.00 72 1019.0
20260904152101 86 212 0.0 0.0 0.00 0.00 0.00 73 1019.1
20260904151556 86 217 2.0 3.0 0.00 0.00 0.00 73 1019.0
20260904151055 86 217 3.0 3.0 0.00 0.00 0.00 75 1019.0
20260904150550 86 217 2.0 2.0 0.00 0.00 0.00 76 1019.2
20260904150045 85 217 1.0 3.0 0.00 0.00 0.00 76 1018.9
20260904145544 86 217 0.0 3.0 0.00 0.00 0.00 76 1018.9
20260904145039 86 221 2.0 2.0 0.00 0.00 0.00 74 1018.8
20260904144535 85 212 0.0 2.0 0.00 0.00 0.00 75 1019.0
20260904144031 85 215 0.0 2.0 0.00 0.00 0.00 75 1019.0
20260904143527 85 217 2.0 2.0 0.00 0.00 0.00 75 1019.0
20260904143024 84 215 0.0 1.0 0.00 0.00 0.00 75 1018.8
20260904142520 84 215 0.0 2.0 0.00 0.00 0.00 77 1018.8
20260904142020 84 216 0.0 1.0 0.00 0.00 0.00 77 1018.7
20260904141515 84 217 2.0 2.0 0.00 0.00 0.00 78 1018.8
20260904141010 84 213 0.0 0.0 0.00 0.00 0.00 80 1018.9
20260904140505 84 215 0.0 0.0 0.00 0.00 0.00 79 1018.8
20260904140004 84 216 0.0 0.0 0.00 0.00 0.00 79 1018.8
20260904135458 84 206 0.0 0.0 0.00 0.00 0.00 79 1018.9
20260904134954 83 215 0.0 0.0 0.00 0.00 0.00 81 1018.9
20260904134448 82 215 0.0 0.0 0.00 0.00 0.00 82 1018.9
20260904133943 82 215 0.0 0.0 0.00 0.00 0.00 82 1018.8
20260904133438 82 215 0.0 0.0 0.00 0.00 0.00 83 1018.9
20260904132934 82 215 1.0 2.0 0.00 0.00 0.00 84 1018.9
20260904132429 82 206 0.0 0.0 0.00 0.00 0.00 84 1018.8
20260904131928 81 206 0.0 0.0 0.00 0.00 0.00 85 1018.9
20260904131424 81 215 0.0 0.0 0.00 0.00 0.00 85 1018.7
20260904130920 81 215 0.0 0.0 0.00 0.00 0.00 85 1018.9
20260904130418 81 215 0.0 0.0 0.00 0.00 0.00 85 1019.0
20260904125913 81 215 0.0 0.0 0.00 0.00 0.00 85 1018.8
20260904125410 80 215 0.0 2.0 0.00 0.00 0.00 86 1018.8
20260904124909 80 215 0.0 1.0 0.00 0.00 0.00 86 1018.7
20260904124406 80 216 0.0 2.0 0.00 0.00 0.00 87 1018.8
20260904123901 80 216 0.0 0.0 0.00 0.00 0.00 86 1018.8
20260904123356 80 215 0.0 1.0 0.00 0.00 0.00 86 1018.8
20260904122851 80 215 0.0 0.0 0.00 0.00 0.00 86 1018.9
20260904122350 79 216 0.0 0.0 0.00 0.00 0.00 88 1018.9
20260904121845 78 206 0.0 0.0 0.00 0.00 0.00 91 1018.8
20260904121342 76 213 0.0 0.0 0.00 0.00 0.00 93 1018.7
20260904120838 76 216 0.0 0.0 0.00 0.00 0.00 94 1018.7
20260904120333 75 215 0.0 0.0 0.00 0.00 0.00 96 1018.4
20260904115828 74 216 0.0 0.0 0.00 0.00 0.00 98 1018.5
20260904115324 74 215 0.0 0.0 0.00 0.00 0.00 99 1018.5
20260904114824 73 215 0.0 0.0 0.00 0.00 0.00 99 1018.6
20260904114318 73 215 0.0 0.0 0.00 0.00 0.00 99 1018.5
20260904113813 73 216 0.0 0.0 0.00 0.00 0.00 99 1018.6
20260904113312 72 208 0.0 0.0 0.00 0.00 0.00 99 1018.4
20260904112807 72 208 0.0 0.0 0.00 0.00 0.00 99 1018.5
20260904112305 72 208 0.0 0.0 0.00 0.00 0.00 99 1018.4
20260904111759 72 208 0.0 0.0 0.00 0.00 0.00 99 1018.3
20260904111254 72 208 0.0 0.0 0.00 0.00 0.00 99 1018.4
20260904110750 72 208 0.0 0.0 0.00 0.00 0.00 99 1018.1
20260904110248 73 208 0.0 0.0 0.00 0.00 0.00 99 1018.2
20260904105744 72 216 0.0 0.0 0.00 0.00 0.00 99 1018.1
20260904105239 72 208 0.0 0.0 0.00 0.00 0.00 99 1017.9
20260904104734 72 216 0.0 0.0 0.00 0.00 0.00 99 1018.0
20260904104229 72 216 0.0 0.0 0.00 0.00 0.00 99 1018.0
20260904103726 72 216 0.0 0.0 0.00 0.00 0.00 99 1017.9
20260904103221 72 213 0.0 0.0 0.00 0.00 0.00 99 1018.1
20260904102716 72 213 0.0 0.0 0.00 0.00 0.00 99 1018.0
20260904102212 72 213 0.0 0.0 0.00 0.00 0.00 99 1017.9
20260904101708 72 213 0.0 0.0 0.00 0.00 0.00 99 1018.0
20260904101204 72 213 0.0 0.0 0.00 0.00 0.00 99 1017.8
20260904100659 72 213 0.0 0.0 0.00 0.00 0.00 99 1018.1
20260904100155 72 213 0.0 0.0 0.00 0.00 0.00 99 1018.0
20260904095654 72 215 0.0 0.0 0.00 0.00 0.00 99 1018.1
20260904095149 72 213 0.0 0.0 0.00 0.00 0.00 99 1018.1
20260904094644 72 213 0.0 0.0 0.00 0.00 0.00 99 1018.0
20260904094139 72 215 0.0 0.0 0.00 0.00 0.00 99 1018.0
20260904093637 72 213 0.0 0.0 0.00 0.00 0.00 99 1017.9
20260904093136 72 215 0.0 0.0 0.00 0.00 0.00 99 1017.9
20260904092632 73 215 0.0 0.0 0.00 0.00 0.00 99 1017.8
20260904092128 73 215 0.0 0.0 0.00 0.00 0.00 99 1017.9
20260904091624 73 215 0.0 0.0 0.00 0.00 0.00 99 1017.9
20260904091124 73 215 0.0 0.0 0.00 0.00 0.00 99 1017.7
20260904090619 73 215 0.0 0.0 0.00 0.00 0.00 99 1017.7
20260904090114 73 213 0.0 0.0 0.00 0.00 0.00 99 1017.7
20260904085609 73 215 0.0 0.0 0.00 0.00 0.00 99 1017.7
20260904085108 73 215 0.0 0.0 0.00 0.00 0.00 99 1017.8
20260904084604 73 215 0.0 0.0 0.00 0.00 0.00 99 1017.8
20260904084101 73 215 0.0 0.0 0.00 0.00 0.00 99 1017.9
20260904083556 73 215 0.0 0.0 0.00 0.00 0.00 99 1017.9
20260904083052 73 213 0.0 0.0 0.00 0.00 0.00 99 1017.9
20260904082547 74 208 0.0 0.0 0.00 0.00 0.00 99 1017.6
20260904082042 74 208 0.0 0.0 0.00 0.00 0.00 99 1017.9
20260904081537 73 213 0.0 0.0 0.00 0.00 0.00 99 1017.7
20260904081032 74 208 0.0 0.0 0.00 0.00 0.00 99 1017.6
20260904080528 74 208 0.0 0.0 0.00 0.00 0.00 99 1017.5
20260904080024 74 208 0.0 0.0 0.00 0.00 0.00 98 1017.4
20260904075520 74 208 0.0 0.0 0.00 0.00 0.00 98 1017.6
20260904075015 74 213 0.0 0.0 0.00 0.00 0.00 98 1017.4
20260904074509 74 213 0.0 0.0 0.00 0.00 0.00 98 1017.8
20260904074003 74 213 0.0 0.0 0.00 0.00 0.00 97 1017.5
20260904073459 74 213 0.0 0.0 0.00 0.00 0.00 97 1017.5
20260904072949 74 213 0.0 0.0 0.00 0.00 0.00 97 1017.4
20260904072444 74 213 0.0 0.0 0.00 0.00 0.00 97 1017.2
20260904071938 74 215 0.0 0.0 0.00 0.00 0.00 97 1017.3
20260904071435 74 213 0.0 0.0 0.00 0.00 0.00 97 1017.5
20260904070929 74 213 0.0 0.0 0.00 0.00 0.00 97 1017.3
20260904070428 75 213 0.0 0.0 0.00 0.00 0.00 98 1017.2
20260904065923 75 213 0.0 0.0 0.00 0.00 0.00 98 1017.5
20260904065419 75 213 0.0 0.0 0.00 0.00 0.00 97 1017.3
20260904064919 75 213 0.0 0.0 0.00 0.00 0.00 97 1017.5
20260904064415 75 213 0.0 0.0 0.00 0.00 0.00 97 1017.3
20260904063910 75 213 0.0 0.0 0.00 0.00 0.00 97 1017.4
20260904063407 75 213 0.0 0.0 0.00 0.00 0.00 97 1017.4
20260904062901 75 213 0.0 0.0 0.00 0.00 0.00 96 1017.5
20260904062357 76 208 0.0 0.0 0.00 0.00 0.00 96 1017.6
20260904061853 76 208 0.0 0.0 0.00 0.00 0.00 96 1017.9
20260904061350 76 208 0.0 0.0 0.00 0.00 0.00 95 1017.7
20260904060845 76 208 0.0 0.0 0.00 0.00 0.00 95 1017.5
20260904060341 76 208 0.0 0.0 0.00 0.00 0.00 95 1017.7
20260904055836 76 208 0.0 0.0 0.00 0.00 0.00 95 1017.7
20260904055331 76 207 0.0 0.0 0.00 0.00 0.00 95 1017.6
20260904054827 76 213 0.0 0.0 0.00 0.00 0.00 96 1017.6
20260904054323 76 207 0.0 0.0 0.00 0.00 0.00 96 1017.7
20260904053818 76 213 0.0 0.0 0.00 0.00 0.00 96 1017.9
20260904053317 77 216 0.0 0.0 0.00 0.00 0.00 95 1017.7
20260904052813 77 216 0.0 0.0 0.00 0.00 0.00 96 1017.9
20260904052310 77 216 0.0 0.0 0.00 0.00 0.00 96 1017.7
20260904051806 77 215 0.0 0.0 0.00 0.00 0.00 96 1017.9
20260904051300 77 216 0.0 0.0 0.00 0.00 0.00 96 1017.8
20260904050750 77 216 0.0 0.0 0.00 0.00 0.00 96 1017.8
20260904050246 77 215 0.0 0.0 0.00 0.00 0.00 95 1018.0
20260904045741 77 215 0.0 0.0 0.00 0.00 0.00 95 1017.7
20260904045236 77 215 0.0 0.0 0.00 0.00 0.00 95 1017.7
20260904044730 77 215 0.0 0.0 0.00 0.00 0.00 96 1017.8
20260904044227 77 215 0.0 0.0 0.00 0.00 0.00 95 1017.9
20260904043723 77 212 0.0 0.0 0.00 0.00 0.00 97 1018.0
20260904043219 77 216 0.0 0.0 0.00 0.00 0.00 96 1017.8
20260904042714 77 207 0.0 0.0 0.00 0.00 0.00 97 1017.8
20260904042211 77 215 0.0 0.0 0.00 0.00 0.00 96 1017.9
20260904041710 77 213 0.0 0.0 0.00 0.00 0.00 96 1017.9
20260904041207 77 213 0.0 0.0 0.00 0.00 0.00 96 1017.9
20260904040702 77 213 0.0 0.0 0.00 0.00 0.00 96 1017.7
20260904040158 77 213 0.0 0.0 0.00 0.00 0.00 95 1017.7
20260904035653 77 207 0.0 0.0 0.00 0.00 0.00 95 1017.7
20260904035148 78 216 0.0 0.0 0.00 0.00 0.00 95 1017.8
20260904034642 78 216 0.0 0.0 0.00 0.00 0.00 94 1017.8
20260904034138 78 216 0.0 0.0 0.00 0.00 0.00 94 1017.9
20260904033634 78 215 0.0 0.0 0.00 0.00 0.00 94 1018.1
20260904033131 78 215 0.0 0.0 0.00 0.00 0.00 93 1017.9
20260904032626 78 212 0.0 0.0 0.00 0.00 0.00 93 1017.7
20260904032125 78 212 0.0 0.0 0.00 0.00 0.00 93 1018.0
20260904031624 78 215 0.0 0.0 0.00 0.00 0.00 93 1017.8
20260904031120 78 212 0.0 0.0 0.00 0.00 0.00 94 1017.8
20260904030615 79 212 0.0 0.0 0.00 0.00 0.00 94 1017.8
20260904030110 79 207 0.0 0.0 0.00 0.00 0.00 93 1017.9
20260904025607 79 207 0.0 0.0 0.00 0.00 0.00 93 1017.9
20260904025101 79 216 0.0 0.0 0.00 0.00 0.00 93 1017.9
20260904024557 79 207 0.0 0.0 0.00 0.00 0.00 92 1018.0
20260904024052 80 207 0.0 0.0 0.00 0.00 0.00 92 1017.9
20260904023548 80 207 0.0 0.0 0.00 0.00 0.00 92 1017.9
20260904023044 79 207 0.0 0.0 0.00 0.00 0.00 91 1017.9
20260904022539 80 216 0.0 0.0 0.00 0.00 0.00 91 1017.8
20260904022036 80 216 0.0 0.0 0.00 0.00 0.00 92 1017.6
20260904021531 80 215 0.0 0.0 0.00 0.00 0.00 91 1017.3
20260904021026 80 213 0.0 0.0 0.00 0.00 0.00 90 1017.6
20260904020521 80 213 0.0 0.0 0.00 0.00 0.00 90 1017.4
20260904020021 80 215 0.0 0.0 0.00 0.00 0.00 90 1017.4
20260904015515 80 215 0.0 0.0 0.00 0.00 0.00 90 1017.4
20260904015014 80 213 0.0 0.0 0.00 0.00 0.00 90 1017.5
20260904014508 80 213 0.0 0.0 0.00 0.00 0.00 90 1017.4
20260904014004 80 211 0.0 0.0 0.00 0.00 0.00 89 1017.2
20260904013500 80 215 0.0 0.0 0.00 0.00 0.00 90 1017.1
20260904012957 80 216 0.0 0.0 0.00 0.00 0.00 91 1017.1
20260904012456 81 215 0.0 0.0 0.00 0.00 0.00 91 1017.3
20260904011950 81 213 0.0 0.0 0.00 0.00 0.00 92 1017.0
20260904011445 81 215 0.0 0.0 0.00 0.00 0.00 91 1017.1
20260904010940 81 213 0.0 0.0 0.00 0.00 0.00 91 1016.9
20260904010437 82 215 0.0 0.0 0.00 0.00 0.00 91 1016.9
20260904005931 82 213 0.0 0.0 0.00 0.00 0.00 90 1016.7
20260904005427 82 213 0.0 0.0 0.00 0.00 0.00 91 1016.9
20260904004921 82 213 0.0 0.0 0.00 0.00 0.00 91 1016.6
20260904004418 82 213 0.0 0.0 0.00 0.00 0.00 91 1016.7
20260904003913 82 213 0.0 0.0 0.00 0.00 0.00 91 1016.7
20260904003409 83 213 0.0 0.0 0.00 0.00 0.00 90 1016.7
20260904002903 83 213 0.0 0.0 0.00 0.00 0.00 89 1016.2
20260904002401 83 215 0.0 0.0 0.00 0.00 0.00 88 1016.3
20260904001859 83 213 0.0 0.0 0.00 0.00 0.00 88 1016.4
20260904001355 84 213 0.0 0.0 0.00 0.00 0.00 86 1016.4
20260904000849 85 215 0.0 0.0 0.00 0.00 0.00 87 1016.2
20260904000348 85 213 0.0 0.0 0.00 0.00 0.00 86 1016.2
20260903235843 85 213 0.0 0.0 0.00 0.00 0.00 84 1016.2
20260903235339 85 213 0.0 0.0 0.00 0.00 0.00 84 1016.0
20260903234838 86 213 0.0 0.0 0.00 0.00 0.00 84 1016.2
20260903234335 87 213 0.0 0.0 0.00 0.00 0.00 84 1016.2
20260903233831 87 215 0.0 0.0 0.00 0.00 0.00 84 1016.3
20260903233327 87 211 0.0 0.0 0.00 0.00 0.00 83 1016.2
20260903232826 88 215 0.0 0.0 0.00 0.00 0.00 80 1016.2
20260903232322 88 211 0.0 0.0 0.00 0.00 0.00 78 1016.1
20260903231820 88 211 0.0 0.0 0.00 0.00 0.00 77 1016.0
20260903231316 88 215 0.0 0.0 0.00 0.00 0.00 77 1015.9
20260903230811 88 215 0.0 0.0 0.00 0.00 0.00 78 1015.8
20260903230307 88 215 0.0 0.0 0.00 0.00 0.00 78 1015.9
20260903225803 89 215 0.0 0.0 0.00 0.00 0.00 78 1016.0
20260903225259 90 210 0.0 0.0 0.00 0.00 0.00 76 1016.2
20260903224755 91 210 0.0 0.0 0.00 0.00 0.00 74 1016.0
20260903224250 93 212 0.0 0.0 0.00 0.00 0.00 71 1016.0
20260903223746 94 214 0.0 0.0 0.00 0.00 0.00 69 1015.9
20260903223244 94 219 0.0 0.0 0.00 0.00 0.00 65 1016.1
20260903222739 92 219 0.0 0.0 0.00 0.00 0.00 68 1016.1
20260903222238 91 218 0.0 0.0 0.00 0.00 0.00 69 1016.2